STARLINK-5324 (55677 NORAD) Tracking and Keplerian Element Data

This shows tracking and keplerian element data for the satellite.

Feedback or suggestion? Click here.




ElementValue
Catalog55677
NameSTARLINK-5324
Epoch Orbit130
Epoch Day62.91667824
Epoch Year2023
RAAN110.1771
Inclination69.9993
Eccentricity0.00036
Argument of Perigee279.7305
Mean Anonmoly334.1939
Mean Motion15.75385272
Decay Rate-0.01043062
L11 55677U 23021BB 23062.91667824 -.01043062 00000+0 -76241-2 0 9993
L22 55677 69.9993 110.1771 0003600 279.7305 334.1939 15.75385272 1308



Live tracking and technical data element details for STARLINK-5324 (NORAD 55677). STARLINK-5324 can be tracked NOW for your location showing map with azimuth and elevation plus other details from your city location.







IsCatalogInMostPopularTable: catalog: 55677, numindb: 2
Update: records affected: 1



GetName: 55677 STARLINK-5324

Hit Count: updated at: Wed, 22 Mar 2023 15:17:08 GMT